Location: Izdebnik
(49.8699°N, 19.7619°E)
Time: 00:38:02
(UTC+01:00)

ISS - Pass Details

Date: 25 January 2019
Orbit: 403 x 411 km, 51.6° (Epoch: 22 February)

Event Time Altitude Azimuth Distance (km) Brightness Sun altitude
Rises 18:27:19 0° 236° (WSW) 2,328 1.1 -19.8°
Reaches altitude 10° 18:29:25 10° 232° (SW) 1,472 -0.2 -20.1°
Enters shadow 18:32:13 49° 187° (S) 538 -3.2 -20.5°
